Wind_Speed
118 120 109 95 90 89 88 86 86 91 91 84 75 82 82 100 114 113 116 115 116 113 110 106 102 100 97 88 89 92 92 91 94 98 97 95 89 89 88 88 85 89 89 89
122 128 115 109 108 101 96 94 89 95 96 92 84 84 85 86 92 110 111 118 116 115 114 111 107 104 97 99 96 92 94 94 102 102 101 100 95 96 96 93 94 96 96 96
97 106 117 113 108 104 100 95 87 90 98 95 93 91 87 84 83 84 102 112 115 116 115 114 112 109 104 102 100 95 93 95 105 112 112 110 103 100 98 97 101 101 100 100
76 85 109 117 114 110 102 98 98 97 96 99 98 91 90 81 82 81 78 91 104 111 115 116 113 112 111 110 105 98 95 97 74 71 80 84 97 101 102 107 108 108 107 107
64 72 92 108 105 113 99 106 110 106 104 102 103 97 86 86 86 78 75 79 84 96 108 113 112 112 113 115 112 105 100 104 116 121 116 111 108 104 109 111 112 111 112 110
59 67 82 97 108 120 111 119 116 114 109 110 98 92 90 85 78 81 80 79 74 74 83 97 107 107 112 112 110 107 109 113 116 116 115 117 112 111 115 119 117 116 116 114
51 63 74 90 99 111 115 123 118 118 119 108 98 85 83 79 83 85 82 79 76 72 69 74 86 98 108 105 107 107 108 109 109 109 111 110 109 110 113 113 108 102 101 104
43 56 65 75 85 106 105 114 115 113 110 102 89 64 80 81 90 84 85 79 76 74 70 68 71 73 85 94 95 97 104 105 106 107 105 104 104 104 106 105 105 104 103 102
35 44 55 63 74 87 96 110 115 114 110 106 93 90 98 95 91 94 83 80 74 72 71 70 69 66 62 63 69 81 85 91 97 102 102 102 100 100 99 96 93 91 95 88
32 43 51 58 65 76 83 101 110 114 116 101 105 96 99 97 91 85 83 81 74 66 65 70 70 63 62 62 65 66 70 72 74 76 78 79 83 84 83 84 82 79 74 73
23 32 38 48 56 62 73 86 92 105 102 87 103 89 94 99 93 89 84 78 77 75 68 65 65 62 61 69 69 66 64 64 65 67 69 70 71 69 70 70 70 69 69 71
16 23 34 45 47 52 60 73 83 94 92 81 94 96 105 102 103 89 80 80 75 76 74 72 69 64 70 66 66 66 65 65 66 66 66 65 64 66 68 69 71 69 70 69
5 14 20 29 42 45 49 59 75 86 87 84 87 94 98 103 97 82 80 79 80 79 78 74 72 70 66 65 66 66 65 65 65 65 66 64 65 68 69 70 71 72 69 63
10 8 16 26 33 40 45 51 66 79 84 78 79 88 94 89 87 80 81 83 82 81 81 77 73 70 67 64 62 63 62 60 60 61 61 63 66 67 68 72 74 70 67 62
15 12 11 17 31 37 44 48 58 71 75 70 68 78 84 85 83 79 83 85 83 81 79 76 72 71 68 66 64 63 62 61 61 62 66 68 68 70 72 71 70 69 65 62
21 16 15 13 20 31 39 45 52 62 68 72 69 73 65 71 73 79 80 82 82 81 78 74 70 67 66 67 65 63 60 62 66 68 69 69 71 70 71 69 70 68 63 61
19 21 15 14 18 25 32 35 48 55 60 69 66 55 59 67 67 71 67 75 81 79 78 76 71 68 67 66 64 64 64 68 69 69 70 69 69 70 70 69 69 62 61 63
32 32 17 13 17 28 38 41 47 56 58 56 50 41 48 56 59 68 70 68 74 77 74 73 72 70 69 68 65 65 66 66 66 67 69 69 68 69 69 68 63 61 62 59
40 41 35 21 14 26 37 37 33 49 55 50 49 51 47 38 41 57 69 70 68 71 75 75 72 71 69 69 67 65 66 66 67 68 66 64 66 67 66 61 60 60 57 56
45 42 37 37 19 23 33 36 42 39 40 45 41 44 46 44 31 42 51 65 69 68 64 64 65 64 63 64 64 64 64 64 64 63 63 62 63 61 59 58 55 57 55 56
24 22 24 17 9 25 36 47 49 45 49 51 53 47 44 42 42 42 46 51 61 61 65 62 57 56 59 61 61 60 60 59 59 58 60 60 56 55 54 52 53 55 57 60
33 24 24 11 21 35 42 38 39 42 44 42 39 36 35 32 30 33 40 46 45 49 51 53 52 51 55 56 54 54 53 54 56 57 52 51 51 51 52 53 55 59 61 60
34 35 34 37 41 45 48 47 41 35 32 37 38 32 26 30 25 28 30 32 36 38 42 46 47 47 47 47 49 51 52 51 47 46 46 48 48 49 52 56 58 63 62 60
43 40 32 31 34 43 46 44 41 34 35 28 31 23 18 15 20 24 20 23 25 31 31 33 38 43 40 39 41 41 40 40 39 43 48 50 51 52 54 57 60 63 63 65
42 41 40 44 38 44 40 47 46 42 37 30 39 38 31 17 23 18 27 29 33 31 24 23 31 30 31 34 37 39 42 45 46 47 48 49 51 54 57 61 65 65 66 68
36 42 44 39 50 45 35 45 47 44 44 40 34 40 32 23 26 25 22 24 28 31 32 36 35 31 30 32 35 36 39 42 45 47 49 52 54 58 61 64 67 70 69 65
Wind_Direction
246 247 250 254 253 244 232 230 226 226 231 233 233 231 231 232 228 231 229 231 233 234 235 236 238 239 239 235 233 236 241 246 251 251 253 254 257 262 263 266 267 269 269 270
237 242 243 245 243 241 236 233 227 225 227 230 231 233 231 233 231 230 231 232 232 234 237 237 238 240 242 243 240 240 243 247 250 252 251 254 258 260 264 265 267 267 269 271
228 231 234 237 241 241 241 239 232 227 228 229 231 231 232 233 231 231 232 233 234 234 235 238 240 240 240 243 245 245 247 253 257 255 257 254 259 262 264 267 268 270 272 275
228 227 226 230 234 236 236 236 229 227 228 229 230 232 233 234 235 232 232 236 235 236 236 237 240 242 242 242 244 245 249 251 245 249 257 260 261 265 268 269 272 274 275 277
225 224 221 226 228 231 232 231 228 225 226 227 228 229 230 231 235 235 234 238 236 236 238 237 240 243 243 245 244 245 246 247 250 257 264 266 266 267 268 270 272 276 276 279
219 217 217 221 223 226 228 226 228 227 226 227 227 228 228 231 236 239 237 238 239 238 238 241 240 243 245 247 248 248 248 248 252 257 261 264 267 268 270 271 273 275 278 279
213 215 214 217 220 223 224 226 228 227 228 231 228 228 227 226 229 233 237 238 241 239 240 242 242 242 244 246 248 250 253 254 257 260 263 266 268 269 270 272 274 277 278 280
214 212 215 219 215 220 221 226 227 227 231 234 236 234 227 225 228 231 234 236 238 242 243 245 248 245 246 247 250 252 253 255 258 261 263 266 267 268 271 273 277 281 282 285
206 212 215 217 212 216 216 219 225 227 228 229 231 226 224 222 223 225 228 232 236 241 244 246 250 253 253 253 250 251 254 257 258 260 263 266 269 272 275 277 280 282 285 288
206 207 210 209 213 217 216 216 220 222 224 225 227 224 225 228 224 224 225 231 229 231 237 242 246 254 256 256 253 259 259 260 262 264 266 268 271 274 276 279 281 284 287 292
206 206 209 211 211 215 214 212 210 217 224 221 225 224 226 228 225 224 223 225 228 227 230 237 246 249 250 250 255 257 263 267 270 271 271 271 274 277 280 282 284 290 292 293
191 202 204 207 209 211 213 207 209 216 216 210 219 222 224 227 227 223 223 222 225 231 232 236 238 237 241 254 261 264 266 268 269 271 273 276 278 280 282 285 289 290 296 296
172 194 201 206 205 205 203 209 207 211 212 214 219 222 227 227 227 224 224 225 225 227 230 233 236 240 244 248 252 257 262 265 269 271 273 276 279 281 285 288 292 295 296 297
97 150 193 200 197 198 203 198 203 207 210 209 211 220 224 228 230 224 225 228 227 228 231 234 236 239 242 248 252 256 260 263 265 268 271 273 276 281 285 289 291 293 296 296
89 118 154 189 185 190 194 196 198 203 207 208 208 218 226 229 225 222 223 226 228 229 232 235 238 241 244 247 251 254 257 260 262 264 268 273 278 281 286 289 291 293 297 297
63 90 127 154 167 181 191 193 191 195 201 209 207 218 222 226 227 223 224 225 228 230 232 235 237 239 241 244 248 252 255 258 262 266 272 276 279 283 287 288 291 294 296 297
50 56 83 123 152 167 175 189 186 184 189 203 202 210 216 225 223 221 220 223 224 228 232 235 237 240 242 245 248 252 256 260 264 269 274 278 282 284 286 288 291 294 294 293
82 69 72 98 153 162 166 174 180 183 191 196 188 193 216 221 222 218 218 222 225 227 231 235 239 242 244 247 250 254 258 264 267 271 276 279 282 283 285 288 291 292 291 291
67 58 63 78 128 158 161 162 178 184 184 184 190 206 214 215 218 223 224 221 222 225 230 234 238 241 245 248 252 256 260 264 268 273 275 278 280 282 286 288 289 289 289 290
66 54 58 50 65 138 159 165 179 181 177 183 189 201 203 201 204 209 221 220 223 224 228 232 238 242 246 249 253 256 260 265 267 270 275 278 281 284 285 286 286 286 289 294
94 89 47 33 5 135 159 165 168 171 178 190 201 207 215 227 225 217 213 216 223 228 230 233 237 241 244 248 251 256 260 265 270 273 276 279 281 283 284 284 285 289 291 296
126 101 114 127 129 131 134 143 155 166 176 179 190 196 206 213 210 215 216 216 216 222 226 230 234 239 243 248 253 259 263 267 270 274 276 277 279 280 283 285 285 288 293 297
137 135 137 123 131 136 135 141 144 152 168 183 195 206 220 223 223 221 212 214 220 221 225 230 235 241 248 252 255 261 265 269 270 272 275 276 281 283 282 282 286 292 294 297
145 149 144 134 153 149 145 137 136 139 135 135 142 120 133 142 160 158 165 176 189 201 219 234 244 248 252 255 259 262 264 265 266 269 272 279 279 279 282 285 291 291 292 295
159 159 141 138 170 155 148 152 145 143 158 157 147 147 158 182 179 190 189 198 206 216 230 235 249 250 251 255 260 263 265 269 269 272 275 276 279 282 286 289 290 291 292 298
167 159 152 160 167 162 162 159 155 149 155 157 162 157 169 179 185 204 212 228 221 225 227 235 246 261 257 255 263 265 265 267 270 272 276 278 283 287 286 286 289 291 296 301
Height
10489 10489 10510 10555 10571 10588 10599 10605 10619 10625 10628 10641 10664 10665 10674 10682 10701 10717 10734 10744 10752 10767 10773 10783 10792 10803 10823 10854 10857 10854 10855 10857 10851 10848 10846 10841 10847 10846 10852 10855 10860 10854 10853 10852
10442 10454 10507 10522 10528 10543 10563 10575 10594 10607 10612 10623 10640 10647 10655 10662 10685 10699 10714 10719 10735 10749 10759 10768 10779 10790 10812 10811 10830 10842 10841 10845 10833 10832 10828 10827 10835 10830 10832 10842 10841 10836 10837 10840
10407 10437 10473 10483 10499 10517 10536 10556 10585 10595 10598 10610 10618 10625 10637 10655 10666 10683 10695 10702 10719 10732 10743 10752 10764 10775 10793 10797 10804 10821 10822 10821 10814 10808 10810 10809 10816 10819 10820 10824 10818 10820 10824 10828
10393 10419 10436 10452 10469 10492 10513 10545 10562 10572 10576 10591 10600 10617 10625 10646 10655 10666 10682 10688 10703 10715 10727 10737 10748 10757 10772 10776 10786 10801 10811 10809 10799 10785 10785 10794 10802 10804 10806 10806 10805 10806 10810 10809
10376 10393 10411 10423 10448 10467 10500 10520 10529 10546 10557 10567 10577 10595 10625 10630 10637 10660 10676 10675 10689 10702 10711 10721 10736 10742 10751 10752 10771 10789 10797 10791 10774 10770 10774 10780 10787 10792 10790 10790 10789 10793 10791 10794
10358 10370 10383 10401 10420 10442 10477 10485 10503 10520 10535 10536 10569 10590 10607 10624 10649 10646 10654 10666 10677 10688 10698 10706 10723 10728 10734 10740 10752 10765 10771 10765 10762 10765 10770 10764 10771 10777 10774 10774 10778 10775 10777 10775
10344 10355 10367 10378 10399 10422 10446 10466 10482 10495 10504 10524 10558 10583 10611 10627 10629 10628 10641 10653 10663 10673 10684 10691 10700 10715 10719 10732 10742 10751 10743 10747 10753 10753 10750 10756 10758 10764 10764 10761 10765 10763 10759 10756
10337 10346 10358 10366 10390 10401 10431 10449 10468 10482 10496 10531 10562 10594 10610 10610 10608 10627 10628 10641 10652 10661 10673 10681 10685 10700 10707 10722 10742 10734 10730 10740 10743 10742 10744 10746 10745 10751 10746 10746 10747 10747 10740 10737
10329 10338 10349 10362 10372 10383 10407 10424 10460 10477 10497 10524 10549 10573 10567 10571 10589 10597 10623 10633 10644 10653 10662 10669 10674 10684 10700 10715 10718 10702 10723 10730 10732 10734 10736 10737 10735 10733 10731 10731 10731 10728 10725 10719
10326 10331 10339 10350 10364 10377 10394 10415 10431 10453 10471 10503 10522 10547 10561 10566 10585 10604 10614 10622 10637 10645 10650 10655 10664 10681 10686 10693 10694 10701 10704 10711 10716 10718 10721 10719 10717 10719 10717 10715 10714 10712 10710 10703
10325 10332 10340 10349 10360 10371 10383 10401 10425 10446 10466 10497 10514 10542 10562 10557 10574 10584 10607 10618 10626 10632 10640 10656 10664 10672 10676 10670 10679 10688 10694 10698 10702 10702 10703 10703 10703 10703 10702 10701 10700 10698 10696 10689
10326 10331 10337 10342 10357 10366 10377 10394 10423 10433 10457 10479 10505 10525 10521 10538 10543 10581 10596 10608 10616 10625 10635 10643 10651 10656 10654 10669 10673 10678 10682 10686 10687 10688 10689 10691 10691 10689 10688 10688 10687 10683 10678 10672
10332 10334 10339 10347 10353 10364 10377 10395 10410 10432 10449 10473 10495 10508 10515 10525 10545 10584 10590 10597 10606 10613 10618 10629 10638 10646 10655 10660 10663 10666 10669 10673 10675 10677 10677 10677 10677 10675 10675 10674 10670 10667 10662 10655
10334 10337 10340 10345 10353 10366 10376 10388 10402 10424 10439 10458 10481 10500 10510 10524 10551 10575 10578 10583 10592 10600 10610 10620 10628 10637 10643 10648 10652 10656 10659 10662 10663 10664 10665 10664 10663 10664 10663 10661 10658 10653 10647 10640
10339 10341 10343 10349 10353 10364 10375 10385 10397 10416 10436 10456 10480 10492 10503 10522 10537 10554 10563 10570 10579 10589 10601 10612 10620 10627 10635 10638 10641 10645 10648 10651 10653 10653 10652 10653 10654 10652 10651 10648 10643 10638 10632 10626
10344 10346 10349 10352 10358 10364 10378 10387 10398 10412 10432 10448 10471 10484 10501 10512 10524 10541 10553 10563 10572 10583 10593 10601 10609 10617 10622 10626 10631 10636 10638 10638 10640 10641 10642 10642 10640 10640 10638 10633 10628 10624 10618 10613
10352 10353 10355 10357 10361 10367 10380 10392 10402 10417 10434 10443 10464 10480 10490 10496 10514 10528 10542 10554 10562 10572 10583 10593 10600 10606 10612 10617 10621 10624 10626 10627 10630 10630 10629 10630 10629 10627 10623 10620 10615 10610 10605 10600
10362 10363 10363 10363 10366 10372 10380 10392 10403 10415 10430 10446 10467 10470 10479 10491 10504 10519 10531 10545 10555 10567 10576 10582 10590 10596 10602 10607 10611 10613 10616 10618 10618 10618 10619 10618 10616 10613 10610 10606 10602 10597 10593 10588
10370 10370 10370 10371 10373 10380 10389 10399 10420 10424 10430 10446 10460 10468 10476 10490 10502 10513 10524 10536 10545 10555 10564 10573 10581 10586 10592 10597 10601 10604 10606 10606 10608 10608 10606 10606 10603 10600 10597 10593 10588 10585 10580 10576
10377 10379 10379 10379 10386 10391 10395 10407 10415 10427 10441 10451 10459 10467 10474 10485 10497 10507 10516 10527 10537 10547 10556 10565 10572 10578 10582 10586 10591 10593 10594 10595 10596 10595 10594 10593 10590 10588 10584 10580 10576 10572 10567 10563
10380 10387 10391 10390 10396 10398 10400 10404 10415 10426 10437 10446 10455 10461 10474 10483 10492 10501 10508 10518 10528 10538 10548 10556 10563 10568 10572 10576 10579 10582 10583 10584 10583 10582 10580 10579 10577 10574 10570 10567 10563 10559 10555 10552
10387 10393 10398 10404 10404 10404 10407 10418 10427 10429 10438 10449 10457 10463 10473 10482 10489 10498 10506 10514 10523 10532 10541 10547 10553 10558 10561 10566 10569 10571 10572 10571 10571 10569 10567 10566 10564 10562 10558 10555 10551 10547 10544 10540
10391 10399 10404 10410 10417 10419 10423 10425 10432 10438 10445 10452 10459 10468 10474 10483 10491 10497 10504 10512 10519 10526 10532 10539 10544 10550 10554 10557 10558 10559 10560 10561 10559 10557 10555 10554 10553 10551 10547 10543 10540 10536 10532 10529
10394 10401 10407 10415 10420 10424 10425 10433 10438 10444 10452 10457 10465 10471 10479 10485 10492 10496 10503 10510 10516 10521 10527 10532 10537 10541 10544 10546 10548 10549 10550 10549 10548 10546 10545 10544 10542 10539 10535 10531 10528 10523 10519 10517
10397 10403 10409 10413 10424 10428 10432 10436 10440 10446 10454 10461 10467 10475 10486 10491 10495 10500 10505 10510 10515 10519 10523 10527 10530 10534 10536 10538 10538 10539 10539 10539 10537 10537 10535 10533 10530 10526 10523 10519 10514 10510 10506 10503
10401 10406 10409 10414 10422 10429 10434 10440 10445 10451 10458 10465 10471 10479 10488 10494 10498 10502 10505 10508 10513 10516 10520 10523 10525 10527 10528 10529 10530 10530 10530 10529 10528 10526 10523 10520 10517 10514 10510 10505 10500 10494 10492 10488